Regional Weather Roundup
Issued by NWS

Home | Current Version | Previous Version | Text Only | Print | Product List | Glossary Off
Versions: 1 2 3 4 5 6 7 8 9 10 11 12 13 14 15 16 17 18 19 20 21 22 23 24 25 26 27 28 29 30 31 32 33 34 35 36 37 38 39 40 41 42 43 44 45 46 47 48 49 50

000
ASUS43 KMKX 281111
RWRWI

WISCONSIN REGIONAL WEATHER ROUNDUP
NATIONAL WEATHER SERVICE MILWAUKEE/SULLIVAN WI
500 AM CST TUE FEB 28 2017

NOTE: "FAIR" INDICATES FEW OR NO CLOUDS BELOW 12,000 FEET WITH NO
SIGNIFICANT WEATHER AND/OR OBSTRUCTIONS TO VISIBILITY.

WIZ001-002-006>008-014>016-023>028-281200-
NORTHWEST WISCONSIN

CITY           SKY/WX    TMP DP  RH WIND       PRES   REMARKS
SUPERIOR ARPT  LGT SNOW  31  30  99 NE5       29.84F WCI  26
ASHLAND        CLOUDY    28  25  88 NW6       29.83R WCI  22
HAYWARD        CLOUDY    37  29  72 CALM      29.78F
SIREN          CLOUDY    34  26  74 N7        29.78S WCI  28
CUMBERLAND     CLOUDY    34  28  80 E3        29.75F
RICE LAKE      CLOUDY    36  30  80 E5        29.76F WCI  32
CHETEK         CLOUDY    35  30  83 E3        29.75F
LADYSMITH      CLOUDY    35  31  85 E5        29.79F WCI  31
EAU CLAIRE     CLOUDY    36  31  82 E6        29.75F WCI  31
MENOMONIE      CLOUDY    35  31  87 CALM      29.75F
NEW RICHMOND   CLOUDY    34  29  81 CALM      29.75R
OSCEOLA        CLOUDY    36  30  78 NW9       29.79R WCI  29
$$

WIZ003>005-009-010-017-018-281200-
NORTH CENTRAL WISCONSIN

CITY           SKY/WX    TMP DP  RH WIND       PRES   REMARKS
MANITOWISH WTR CLOUDY    32  30  92 SE6       29.80F WCI  26
ARBOR VITAE    CLOUDY    33  30  88 CALM        N/A
WOODRUFF       CLOUDY    33  30  88 CALM        N/A
RHINELANDER    CLOUDY    35  31  85 S5        29.81F WCI  31
EAGLE RIVER    CLOUDY    32  28  86 CALM      29.81F
LAND O LAKES   CLOUDY    35  30  82 S5        29.83S WCI  31
PHILLIPS       CLOUDY    31  29  90 CALM      29.79S
TOMAHAWK       CLOUDY    32  29  88 CALM      29.81F
MEDFORD        CLOUDY    35  31  86 SE3       29.78S
MERRILL        NOT AVBL
$$

WIZ029-030-035-036-043>047-281200-
CENTRAL WISCONSIN

CITY           SKY/WX    TMP DP  RH WIND       PRES   REMARKS
WAUSAU         CLOUDY    34  30  85 E8        29.80F WCI  27
MOSINEE        CLOUDY    34  32  93 E6        29.82F WCI  29
MARSHFIELD     CLOUDY    36  32  85 E5        29.77F WCI  32
STEVENS POINT  LGT RAIN  34  34  99 CALM      29.83S
WAUPACA        DRIZZLE   39  37  92 CALM      29.84F
WAUTOMA        LGT RAIN  37  37 100 E5        29.83F FOG     WCI  34
WISC RAPIDS    LGT RAIN  38  38 100 SE8       29.81F FOG     WCI  32
CAMP DOUGLAS   CLOUDY    36  36  99 E5        29.79F WCI  32
$$

WIZ011>013-019>022-031-037>040-048>050-281200-
NORTHEAST WISCONSIN

CITY           SKY/WX    TMP DP  RH WIND       PRES   REMARKS
ANTIGO         CLOUDY    32  31  96 SE8       29.83F FOG     WCI  25
SHAWANO        LGT RAIN  39  35  84 CALM      29.86S
OCONTO         CLOUDY    37  35  92 S6        29.87S WCI  32
STURGEON BAY   LGT RAIN  39  37  92 S13       29.88F WCI  31
GREEN BAY      LGT RAIN  38  38 100 S6        29.87S FOG     WCI  33
MANITOWOC      LGT RAIN  39  37  92 S8        29.90S FOG     WCI  33
APPLETON       LGT RAIN  36  36 100 SE7       29.84F WCI  30
CLINTONVILLE   RAIN      36  32  87 SE3       29.85S
OSHKOSH        LGT RAIN  38  36  92 SE8       29.85S FOG     WCI  32
$$

WIZ032>034-041-042-053>061-281200-
SOUTHWEST WISCONSIN

CITY           SKY/WX    TMP DP  RH WIND       PRES   REMARKS
LA CROSSE      CLOUDY    43  37  79 SE10      29.76F
SPARTA         CLOUDY    40  38  95 E6        29.78F
VIROQUA        CLOUDY    38  37  99 E10       29.75F WCI  30
BOSCOBEL       CLOUDY    40  38  93 NE5       29.77F FOG
PRAIRIE DU CHI FOG       36  35  96 CALM      29.75F VSB 3/4
PLATTEVILLE      N/A     39  39 100 E10       29.75F WCI  32
$$

WIZ056-057-062-063-064-067-068-281200-
SOUTH CENTRAL WISCONSIN

CITY           SKY/WX    TMP DP  RH WIND       PRES   REMARKS
REEDSBURG      CLOUDY    37  37 100 CALM      29.79F FOG
BARABOO/DELLS  CLOUDY    39  38  97 SE3       29.79F FOG
LONE ROCK      CLOUDY    41  39  93 E6        29.78F FOG
MINERAL POINT  CLOUDY    45  45 100 SE12      29.76F
MADISON        CLOUDY    43  40  89 SE8       29.80F FOG
MIDDLETON      CLOUDY    43  43 100 E5        29.80F
WATERTOWN      CLOUDY    42  42 100 SE10G17   29.82F FOG
MONROE         CLOUDY    45  43  93 SE9       29.77F FOG
JANESVILLE     CLOUDY    46  46 100 SE7       29.81S
$$

WIZ051-052-058>065-066-070>072-281200-
SOUTHEAST WISCONSIN

CITY           SKY/WX    TMP DP  RH WIND       PRES   REMARKS
MILWAUKEE      LGT RAIN  42  40  92 SE15      29.87S FOG
WAUKESHA       LGT RAIN  39  37  93 SE10      29.86S WCI  32
MILWAUKEE/TIMM LGT RAIN  41  37  87 SE12G17   29.87F
RACINE         CLOUDY    41  39  93 SE9       29.88F FOG
KENOSHA        CLOUDY    41  40  96 E7        29.86S FOG
FOND DU LAC    RAIN      39  35  86 SE7       29.85S FOG     WCI  34
SHEBOYGAN      CLOUDY    39  37  92 SE8       29.87F FOG     WCI  33
WEST BEND      LGT RAIN  41  41 100 SE8       29.86S
JUNEAU         DRIZZLE   40  39  96 E12       29.84S WCI  33
$$

LSZ147-162-281200-
LAKE SUPERIOR

STATION/POSITION TIME  TEMP    WIND        PRES    WAVE
                       AIR SEA DIR/SP/G            HT/PER
                 (UTC) (F)     (DEG/KT/KT) (MB)    (FT/S)
DEVILS ISLAND    1000   35      50/  8/  8 1010.6S
PORT WING        1040   31      70/  4/  7 1011.2R
SAXON HARBOR     1040   29     220/  2/  3 1009.8R
$$

LMZ867-665-643>646-281200-
LAKE MICHIGAN

STATION/POSITION TIME  TEMP    WIND        PRES    WAVE
                       AIR SEA DIR/SP/G            HT/PER
                 (UTC) (F)     (DEG/KT/KT) (MB)    (FT/S)
CHAMBERS ISLAND  1040   39     130/  5/ 10 1011.5F
NORTHPORT PIER   1040   39     150/  9/ 15 1012.5F
SISTER BAY       1035   39     170/ 15/ 19   N/A
KEWAUNEE LAKESHO 1048   38     200/  1/  4 1011.9F
SHEBOYGAN LAKESH 1100   39     140/ 16/ 18 1011.7F
PORT WASHINGTON  1040   40     130/ 12/ 16 1012.5F
MILWAUKEE LAKESH 1050   40     120/ 13/ 14   N/A
KENOSHA   LAKESH 1100   40     110/  6/  7 1011.5
$$

TC  - TEMPERATURE IN CELSIUS
VSB - VISIBILITY IN STATUTE MILES
WCI - WIND CHILL INDEX
HX  - HEAT INDEX





USA.gov is the U.S. government's official web portal to all federal, state and local government web resources and services.